Theta_e
287 280 278 278 280 282 283 282 283 281 282 281 280 281 282 283 284 286 287 291 298 295 292 294 297 296 298 300 302 304 305 304 303 303 303 303 302 302 302 302 302 302 300 301 301 301 301 301 302 302 302 302 302 302 302 301 301 302 301 300 299 299 299 298 297 297 296 294 293 293 293 292 291 292 292 292 291 291 291 290 290 289 289 289 288 287
288 280 280 282 283 284 283 282 282 282 282 281 280 279 280 282 281 286 287 291 296 293 292 295 295 294 298 300 301 303 303 301 302 302 302 302 302 302 302 302 302 302 301 300 299 300 301 301 301 301 301 300 299 300 301 300 301 301 300 299 299 298 298 298 298 298 296 295 294 293 293 292 292 292 291 290 291 291 292 291 290 289 287 287 288 288
281 281 284 286 286 286 284 283 283 282 281 281 280 279 279 280 282 285 288 293 295 294 291 295 291 291 296 300 302 302 302 303 304 304 303 303 302 302 302 302 301 299 298 299 299 299 299 300 300 300 300 300 301 300 300 301 300 299 300 299 298 298 298 298 298 298 296 295 295 294 293 293 291 292 292 291 292 291 289 289 289 288 287 286 286 286
278 282 286 289 287 286 285 285 283 283 283 283 282 280 278 282 281 278 284 291 294 293 292 294 293 293 297 299 300 303 303 303 305 304 303 304 302 302 302 302 300 299 298 297 297 298 298 299 299 299 299 300 300 299 299 299 298 298 299 297 298 298 298 298 298 298 296 296 295 294 294 292 291 290 292 291 290 289 288 288 288 288 286 286 285 285
282 285 290 291 289 287 285 285 284 283 281 283 284 283 282 282 284 283 282 292 294 294 296 293 291 291 294 292 295 300 303 303 303 304 304 304 304 304 304 303 301 299 298 298 297 297 297 297 298 298 298 300 299 299 299 299 298 298 299 298 298 298 298 298 299 297 296 295 293 292 291 292 291 291 289 288 288 288 288 287 286 286 286 286 285 284
285 288 291 288 287 288 286 284 284 284 282 283 285 285 285 285 285 285 286 288 287 286 291 292 283 284 291 293 294 298 300 300 302 301 301 302 302 302 302 301 301 301 300 299 297 297 297 297 298 298 298 298 299 299 300 300 300 300 300 298 299 300 298 297 298 297 296 295 292 291 290 289 288 287 287 287 287 287 286 285 286 285 285 285 284 283
288 290 288 287 286 286 286 285 286 286 283 282 284 288 287 287 286 285 284 287 283 282 288 292 283 281 290 291 293 296 298 298 300 300 301 302 301 302 302 301 300 300 299 299 299 298 297 298 297 297 297 298 299 300 301 301 301 300 299 298 298 298 297 297 297 297 296 293 293 292 292 291 290 288 289 289 289 288 286 286 285 285 284 283 283 283
290 289 287 287 285 285 284 283 286 287 284 283 290 289 289 287 286 285 286 286 286 290 289 289 287 283 283 289 295 297 296 297 297 299 300 301 301 301 302 301 301 300 300 299 298 298 298 297 297 296 297 298 299 300 301 301 301 299 298 297 298 297 297 297 297 296 296 294 293 292 291 291 290 290 289 289 288 287 287 285 285 284 283 283 282 282
289 286 286 285 285 284 284 285 287 289 286 285 291 291 288 288 287 286 285 285 286 287 283 287 287 284 283 289 296 297 293 295 295 297 299 301 301 302 302 302 301 300 300 299 298 298 298 297 297 297 297 299 300 300 300 300 300 300 299 298 298 297 297 297 296 296 295 295 294 293 292 291 291 291 290 289 289 287 286 284 284 283 282 282 282 281
289 289 287 285 284 283 286 286 288 288 285 290 293 294 292 291 289 287 286 287 286 285 281 285 286 281 281 287 291 295 294 293 295 297 299 301 301 302 302 302 301 301 300 300 300 299 299 298 298 299 299 299 300 301 301 301 301 300 300 299 297 296 297 297 296 296 295 295 294 292 292 291 291 291 288 288 287 285 285 284 283 282 282 281 281 281
290 292 289 285 284 285 285 287 288 288 290 295 294 292 291 290 287 287 286 283 282 278 283 286 284 281 277 285 289 290 291 295 297 297 299 301 302 303 303 303 302 301 300 300 300 299 299 300 300 300 298 299 300 300 300 300 300 299 299 298 296 296 297 297 296 296 295 294 293 293 292 292 290 289 288 287 285 285 284 283 282 282 282 281 280 281
289 288 286 286 291 287 288 290 291 291 292 293 289 288 288 285 287 285 285 285 280 276 281 286 285 283 276 281 289 295 297 298 298 297 298 300 301 302 303 303 303 302 301 300 300 299 300 300 299 300 298 298 299 299 299 300 300 299 298 296 295 296 297 297 296 295 294 294 293 293 293 291 290 289 288 287 286 285 284 283 282 282 281 280 281 280
285 286 287 288 290 289 288 290 291 291 291 291 290 289 283 280 282 278 281 277 277 275 280 284 285 281 281 283 288 294 295 298 300 300 300 301 301 302 303 304 303 303 302 301 300 300 300 299 298 298 298 298 298 298 298 299 299 298 297 296 295 296 296 296 296 295 294 294 293 294 293 292 291 290 289 288 286 286 285 284 283 282 281 280 280 279
284 285 286 289 288 291 290 286 285 285 287 288 286 285 282 277 277 275 278 279 279 283 285 285 287 282 284 287 288 290 295 297 299 300 302 302 302 303 304 305 304 304 303 302 301 300 299 299 299 298 298 297 297 298 298 298 298 297 297 296 295 296 296 296 295 295 294 294 294 295 294 292 291 290 290 289 287 286 285 285 284 283 282 281 280 279
279 280 286 288 286 291 288 289 288 286 286 285 286 285 283 281 278 276 278 276 277 279 283 285 284 281 282 285 290 291 293 295 299 301 302 303 304 304 305 306 305 304 303 303 301 300 300 300 299 298 298 297 297 297 297 297 298 297 296 296 296 295 296 295 295 295 295 295 295 296 294 293 291 291 290 289 289 287 286 286 284 283 282 281 280 279
281 281 289 291 291 289 287 289 290 287 286 287 287 286 283 281 281 279 280 280 279 280 280 283 283 284 285 292 293 294 294 295 298 301 301 302 303 304 304 304 305 305 304 304 302 300 300 301 300 300 298 297 297 297 297 297 298 297 296 296 296 296 296 296 295 295 296 296 296 296 294 293 293 293 291 290 290 289 288 287 285 283 282 281 279 279
280 279 288 290 290 290 289 288 287 288 281 285 286 281 283 286 283 279 282 283 284 282 278 284 283 285 291 293 292 293 296 298 299 300 301 301 302 303 303 304 305 306 305 305 303 302 302 302 302 301 300 298 298 298 298 297 298 298 296 296 296 296 296 296 296 296 296 296 296 296 295 294 294 293 291 290 290 289 289 287 285 283 281 280 279 280
277 278 285 287 287 289 287 289 287 288 289 285 281 283 287 288 285 282 279 280 278 276 277 282 279 280 282 282 290 291 296 297 297 298 300 301 302 302 303 304 305 306 306 306 306 305 304 303 303 303 302 301 300 300 300 299 298 299 297 296 296 296 296 296 296 296 296 296 296 296 295 294 294 293 292 291 290 289 288 286 284 282 280 279 280 281
282 276 282 286 286 288 288 288 288 288 288 287 283 288 284 279 278 280 282 276 275 273 274 279 280 280 278 280 284 285 290 296 297 299 300 300 301 302 303 303 305 306 306 306 306 306 305 304 304 304 303 303 302 302 302 302 300 299 298 297 297 297 297 297 297 297 296 296 296 296 295 294 294 293 292 291 290 288 287 285 284 282 281 279 280 281
282 279 281 285 287 287 285 284 278 280 285 287 287 284 286 284 280 278 278 278 276 271 272 276 278 277 282 283 284 284 288 293 298 298 300 301 302 302 303 304 304 305 306 306 307 307 306 306 306 305 304 304 304 304 303 303 301 299 298 297 297 297 297 297 297 297 296 296 296 296 295 293 293 292 291 290 289 288 287 285 284 282 280 280 281 279
278 281 275 282 285 286 282 280 279 278 278 280 281 280 281 281 283 283 280 279 276 271 271 273 274 280 283 288 285 285 288 293 298 299 300 301 302 303 303 304 304 305 306 306 307 307 307 307 307 307 306 306 306 305 305 304 302 299 299 298 297 297 296 296 296 296 296 296 296 295 294 293 292 291 291 289 289 288 286 285 284 282 280 280 279 279
276 276 276 279 281 280 280 282 281 280 280 279 278 278 278 279 278 277 275 281 276 276 272 273 274 278 284 287 286 287 290 292 297 298 300 301 302 302 302 303 305 305 305 306 307 307 307 307 307 307 307 307 306 305 304 303 302 299 298 298 297 297 297 296 296 296 296 296 296 294 293 292 292 291 289 288 288 287 285 284 283 282 280 279 279 279
282 280 278 275 279 282 282 281 280 280 280 280 280 282 280 280 281 277 273 275 278 276 278 276 275 277 286 285 285 287 288 289 295 296 298 299 300 300 300 299 300 302 303 303 303 305 306 307 307 306 306 305 305 304 303 301 300 299 298 298 297 297 296 297 297 297 296 296 295 294 293 292 291 290 289 288 287 286 285 284 282 282 280 279 279 279
287 276 274 276 278 280 281 279 278 277 280 281 281 282 281 280 280 279 279 280 276 276 276 276 274 278 284 284 282 285 286 287 293 295 297 297 298 298 298 297 298 298 297 298 298 300 302 303 303 304 303 304 303 301 301 300 299 298 298 297 297 296 297 297 296 296 295 295 294 293 293 292 291 290 289 288 287 286 285 283 282 282 281 280 279 279
275 275 277 272 270 272 274 276 279 280 281 279 279 280 282 282 282 280 279 278 277 276 277 275 273 277 284 284 283 285 289 293 294 294 295 297 296 297 297 296 296 296 295 295 297 298 298 299 301 303 303 304 303 301 301 300 299 298 297 297 297 297 296 296 295 295 295 294 293 292 292 291 290 289 288 288 287 286 285 283 283 282 281 280 279 279
277 273 273 271 270 269 269 270 273 275 277 279 280 281 282 281 280 281 278 278 275 276 277 273 273 279 282 284 284 285 287 289 290 289 290 290 295 295 294 294 294 294 295 295 294 295 297 298 298 299 299 300 300 300 299 299 298 297 297 296 296 296 294 294 294 295 295 294 292 291 291 290 289 289 288 288 287 285 284 283 283 282 281 280 279 278
270 268 270 270 269 270 273 275 278 281 278 276 279 280 279 281 281 281 281 277 275 275 276 278 279 279 282 282 284 285 285 288 289 289 290 291 291 291 292 292 292 293 293 294 294 293 292 294 296 298 297 298 298 297 298 298 297 296 296 295 294 294 293 293 294 294 294 293 292 291 290 290 289 289 288 287 286 285 284 283 283 282 280 280 279 279
269 271 270 270 271 275 278 277 277 279 277 277 276 277 279 279 279 280 278 277 280 278 275 280 280 280 281 282 284 284 284 284 285 285 286 285 288 291 292 291 292 292 292 292 291 292 295 295 295 295 296 296 296 296 296 296 297 296 296 295 293 293 293 293 293 293 293 292 291 291 290 290 289 289 288 287 286 285 284 283 282 281 281 280 279 278
273 273 272 271 271 273 275 276 276 276 276 276 276 276 276 277 278 279 278 280 281 276 276 280 279 280 280 281 283 282 284 284 285 285 285 286 287 288 289 290 291 291 291 291 292 291 292 293 294 294 294 295 294 294 294 294 294 294 294 294 293 292 293 293 293 293 293 292 291 291 291 290 288 288 288 286 286 285 284 283 282 282 281 280 279 279
275 272 268 268 270 269 272 276 275 275 273 274 274 275 276 277 277 278 279 279 279 277 279 279 279 281 281 282 282 284 284 283 283 282 282 284 285 286 287 288 289 289 289 290 291 291 291 292 291 292 292 292 293 293 292 293 293 293 293 292 292 292 292 292 292 292 292 291 291 291 290 289 288 287 287 286 285 285 284 283 282 281 280 280 279 278
277 271 278 267 270 270 272 275 273 273 271 271 274 275 275 276 277 277 277 277 277 277 277 278 278 281 283 282 282 282 280 281 282 284 284 283 282 284 285 287 287 288 289 289 289 290 290 290 290 290 291 292 292 293 293 293 293 292 292 292 291 292 291 291 291 292 292 292 291 290 289 288 287 287 286 286 285 284 284 283 282 281 280 279 278 278
276 272 265 265 271 270 270 270 271 269 269 270 270 276 275 275 276 277 278 279 278 277 276 276 276 279 283 280 280 280 280 282 282 283 283 283 283 282 283 285 285 286 287 289 289 289 289 290 291 291 291 292 292 292 292 292 291 291 291 291 291 291 290 291 291 292 292 292 290 289 288 287 287 286 286 285 285 284 283 282 281 281 280 279 278 278
273 268 271 264 269 265 269 268 268 269 268 269 274 276 276 276 276 277 279 279 281 280 276 272 278 279 282 282 283 282 281 282 282 282 282 282 281 281 281 281 281 282 284 286 287 288 289 290 292 292 292 291 292 292 292 292 291 291 292 291 290 289 289 290 291 292 292 291 289 288 288 287 286 286 286 285 285 284 283 282 281 281 280 279 279 278
274 273 270 267 270 268 266 265 264 265 268 270 276 278 278 278 278 276 277 279 279 281 282 279 281 281 279 280 282 282 282 284 284 284 283 283 283 281 280 280 280 281 281 281 284 288 289 289 290 291 292 293 292 292 290 290 291 292 291 291 288 288 288 289 290 291 291 290 289 288 287 287 286 286 286 285 285 284 283 282 281 281 280 279 278 278
271 270 271 265 270 268 266 265 269 265 265 277 277 276 277 276 276 277 278 277 278 279 278 279 279 279 280 280 281 281 281 281 279 280 281 280 280 281 283 282 281 280 281 281 281 282 286 288 288 288 287 289 289 287 288 288 288 287 287 288 288 288 288 288 288 288 289 288 288 288 287 287 286 286 286 285 285 284 282 282 282 281 280 279 279 278
270 272 270 271 268 265 265 263 265 266 274 277 276 276 276 275 275 277 277 279 279 277 279 279 279 278 279 279 279 279 279 279 279 280 278 279 279 281 280 282 282 281 282 281 282 281 282 284 287 288 289 289 288 288 289 290 288 288 288 287 288 287 287 287 287 287 287 287 287 287 287 287 286 286 286 285 284 283 283 282 282 281 280 279 279 278
278 270 269 271 267 269 263 264 270 269 275 277 277 278 275 279 276 277 273 279 280 278 278 279 280 279 279 280 279 278 278 278 279 282 281 281 282 281 282 282 281 281 281 281 281 282 281 282 284 286 285 285 288 288 289 289 288 288 287 286 287 287 286 286 287 287 286 286 286 287 287 287 286 286 286 285 284 283 283 282 282 281 280 279 279 278
275 274 272 272 270 263 266 266 265 265 264 270 276 278 278 279 278 278 276 276 280 277 277 279 281 281 281 280 281 279 279 278 279 281 281 280 279 281 281 281 281 281 281 281 280 280 280 280 281 281 284 285 286 288 288 287 288 288 287 287 286 286 286 286 287 287 287 287 286 286 286 286 286 285 285 285 284 283 283 282 282 281 280 280 279 279
275 273 270 271 268 266 262 261 263 265 269 272 277 278 280 277 277 276 272 273 277 279 277 279 280 279 279 280 280 279 277 276 278 277 281 279 280 280 281 281 279 280 280 280 281 282 281 280 281 283 281 282 285 285 285 286 286 287 287 287 286 286 286 286 287 287 287 287 287 286 286 285 285 285 284 284 283 283 283 282 282 281 280 280 280 280
270 267 270 268 265 263 260 263 268 261 269 279 275 276 278 275 278 277 270 269 278 280 277 278 279 280 279 278 278 278 276 276 276 278 279 279 280 280 281 282 281 280 280 278 278 281 281 281 283 283 283 283 285 283 284 285 287 287 287 286 286 286 287 288 288 288 288 287 286 286 285 285 284 284 284 284 283 283 283 282 281 281 280 280 280 279
269 270 267 270 263 269 273 264 264 269 277 278 277 277 276 276 277 271 266 276 278 276 278 278 278 277 278 278 277 282 277 278 279 280 279 278 281 281 279 278 279 279 281 281 281 281 281 280 282 283 282 282 283 281 283 285 286 286 287 286 286 286 288 289 287 287 287 285 285 285 285 284 284 284 284 284 283 283 282 281 281 281 280 280 279 278
265 264 267 263 266 269 261 271 267 268 276 278 276 276 276 279 270 266 277 277 277 281 278 279 281 279 278 277 278 279 282 280 278 279 280 280 280 281 280 280 279 279 278 279 280 279 279 280 280 280 280 279 279 280 283 284 286 286 286 285 286 288 289 287 287 286 285 285 285 285 284 284 284 284 284 283 282 282 282 282 281 281 280 279 278 278
269 269 267 267 265 263 258 262 265 269 276 278 277 276 277 276 275 275 277 280 279 280 280 279 280 280 279 279 278 280 279 279 279 280 280 280 279 280 280 279 279 280 281 279 281 279 279 280 280 281 281 281 279 280 282 284 285 285 285 286 288 288 286 286 285 285 285 285 285 285 285 285 284 284 284 284 283 282 282 281 280 280 279 279 278 278
272 273 265 263 269 267 267 267 272 274 277 279 280 279 277 281 282 277 280 282 281 278 279 279 279 279 279 281 279 278 277 278 279 277 278 278 277 277 277 277 277 277 277 278 278 278 278 279 279 280 280 279 278 279 281 284 285 285 284 286 288 284 282 284 284 284 285 285 285 285 285 285 285 284 284 284 283 282 282 280 280 280 279 279 279 278
275 275 272 276 273 270 268 268 276 275 277 279 280 278 277 278 278 278 277 278 280 281 277 280 280 278 279 280 279 279 280 278 280 278 280 280 279 279 279 279 279 279 279 279 279 277 277 279 280 279 279 279 278 278 280 282 285 284 284 287 285 284 284 284 284 284 284 285 285 285 285 284 284 284 284 284 283 282 282 281 279 279 278 278 278 278
277 278 275 276 275 274 276 280 279 278 278 278 278 279 278 280 280 278 281 284 280 277 279 281 278 277 278 278 281 279 280 279 278 279 278 278 278 279 278 278 278 278 277 277 277 277 277 277 277 277 278 279 277 277 279 281 283 284 286 285 284 283 283 283 283 284 284 285 285 285 284 284 283 283 284 283 283 284 283 283 281 281 279 278 279 279
271 273 275 276 274 275 272 276 278 278 277 277 280 279 279 279 281 279 279 280 280 278 278 279 280 279 279 278 281 282 281 279 279 280 279 278 278 279 278 278 279 279 279 279 279 278 278 277 278 279 278 279 278 277 278 279 282 284 285 283 280 281 281 282 283 284 284 284 285 283 283 284 284 283 283 283 283 283 283 283 282 281 281 279 279 279
276 274 278 274 273 275 276 274 276 277 276 277 278 280 280 281 280 280 283 282 281 278 279 280 279 279 278 279 281 281 282 280 279 280 280 279 279 279 279 279 279 279 278 278 278 277 277 278 279 280 279 280 280 279 278 279 281 282 283 283 279 278 279 282 283 284 284 284 284 284 283 284 282 283 283 283 283 283 283 283 283 282 282 281 280 280
275 277 272 272 276 276 277 278 279 280 279 280 279 279 282 282 280 279 279 279 279 280 280 279 277 280 279 282 280 279 280 280 280 280 279 280 279 279 280 280 279 279 279 278 278 276 279 279 279 280 279 281 280 279 278 279 280 280 281 282 281 279 280 282 282 283 283 283 282 283 283 283 283 284 284 283 282 283 284 284 283 283 283 283 283 283
276 274 274 275 272 271 274 278 276 278 274 279 279 278 278 279 279 279 279 279 278 279 280 279 280 278 279 279 279 278 280 282 279 277 278 279 280 279 279 279 279 278 279 278 278 277 277 277 279 280 280 281 280 279 279 279 279 280 280 279 279 280 281 282 281 281 282 282 281 282 282 282 283 282 283 283 282 282 282 280 283 284 284 284 283 283
279 279 276 276 274 274 277 277 277 280 277 280 281 281 277 278 279 280 280 280 281 281 280 280 280 280 279 280 278 279 280 281 282 278 277 279 280 280 280 279 279 280 280 279 278 277 277 278 278 278 279 280 280 279 280 280 280 280 279 279 279 280 281 281 281 281 281 281 281 282 282 281 282 282 282 282 282 282 282 282 282 283 284 284 282 283
Wind_Speed
3 3 4 7 9 10 9 10 11 7 3 0 1 2 4 5 6 4 5 3 6 7 13 12 11 10 10 9 12 10 6 6 10 14 13 8 9 11 10 10 10 9 10 8 9 9 10 10 9 9 8 9 9 9 10 9 9 7 9 11 11 8 9 8 8 8 8 8 6 4 5 5 4 5 4 4 3 4 4 3 3 3 4 4 4 4
3 5 10 13 12 10 11 9 7 6 5 7 6 4 7 5 9 5 6 4 6 7 10 12 10 9 13 12 9 9 10 6 10 11 12 14 12 11 10 11 10 10 10 10 8 9 9 8 9 8 8 11 13 10 10 9 9 10 10 12 10 8 8 8 9 8 7 6 7 6 6 5 5 6 5 4 4 3 3 3 3 3 4 4 4 3
4 10 14 10 9 5 4 5 7 9 9 8 8 8 6 10 5 6 5 4 6 9 8 12 10 8 8 10 10 12 14 13 13 12 16 16 15 11 10 10 13 13 14 11 9 9 9 10 10 8 7 9 8 8 9 8 9 9 10 10 10 8 8 7 8 8 7 4 3 4 5 7 5 2 3 4 4 3 4 3 3 3 3 4 3 3
5 8 15 9 4 6 4 5 4 5 5 7 7 7 10 5 3 5 5 7 8 7 5 12 14 6 6 5 6 9 11 5 10 9 4 6 8 11 14 16 14 15 17 16 14 13 12 12 10 9 9 9 9 9 9 10 11 9 9 10 9 8 7 8 8 7 5 5 5 5 6 6 4 4 4 4 4 4 4 4 3 3 3 3 4 3
12 5 4 5 6 5 8 6 7 6 8 8 9 9 8 7 9 8 3 5 10 13 4 8 8 3 5 5 3 3 4 7 7 7 8 6 5 3 3 6 5 10 13 13 12 11 12 12 12 12 11 8 9 9 10 10 10 8 10 9 8 8 8 7 7 7 8 8 7 7 7 7 8 6 4 4 3 3 3 3 3 3 3 3 4 4
13 8 2 2 7 11 11 10 11 9 9 8 10 12 13 11 11 8 0 6 6 10 8 12 8 10 6 10 10 3 4 8 7 10 10 9 8 10 8 6 7 9 9 12 13 12 10 10 9 9 10 9 9 10 11 10 8 7 8 8 8 7 6 8 7 9 9 8 9 9 8 6 4 5 5 7 8 6 5 4 2 2 3 4 4 3
5 2 1 4 7 8 12 11 6 11 8 10 6 12 13 9 8 6 3 6 10 8 8 9 13 6 5 9 8 6 6 9 8 9 10 10 9 11 10 10 11 10 9 9 10 12 13 12 11 12 13 12 12 10 9 8 9 10 9 9 10 9 7 7 7 9 8 8 7 9 9 8 9 9 5 2 3 5 4 4 4 3 3 3 4 3
2 3 3 3 5 7 7 9 7 12 10 7 1 10 14 11 9 7 6 8 2 1 6 1 6 6 8 8 9 9 9 9 10 10 10 10 11 11 11 11 12 13 13 13 13 12 14 15 15 16 16 12 11 11 10 11 10 12 12 9 10 8 8 7 8 9 9 10 8 7 6 6 7 7 7 6 5 4 4 5 4 3 3 3 3 4
1 4 2 4 2 3 5 1 4 10 7 3 2 6 10 14 12 6 4 8 6 10 5 3 2 7 5 3 7 10 10 10 10 10 11 10 11 12 12 11 12 12 13 14 14 14 15 16 15 13 13 12 12 10 11 10 9 9 9 8 9 9 8 7 9 9 8 8 9 9 8 7 3 4 4 5 5 5 4 5 3 3 3 3 3 3
1 2 5 1 1 4 3 4 5 4 5 6 5 7 7 7 5 7 6 8 6 4 7 8 3 4 1 2 9 9 11 12 11 13 12 13 13 12 12 10 12 11 10 11 15 15 14 13 14 12 10 11 11 10 6 5 6 8 6 8 11 10 8 8 9 9 9 8 8 8 7 8 6 5 5 5 6 5 5 5 4 3 4 4 3 3
3 3 3 0 2 3 5 7 9 8 11 6 4 10 9 9 6 4 2 4 5 2 3 4 2 4 4 6 10 11 12 15 12 8 8 10 11 11 12 11 11 12 12 11 12 13 12 11 11 10 13 11 8 7 7 8 8 9 8 11 12 11 8 9 11 10 10 8 8 9 9 9 9 8 8 7 6 6 5 6 5 5 5 3 4 3
4 2 2 2 4 4 3 5 5 10 10 6 1 3 8 5 3 2 3 2 5 2 1 4 4 2 3 3 7 10 2 9 14 16 15 15 13 13 13 12 13 14 12 11 11 12 12 11 11 9 11 11 10 9 9 9 7 9 11 11 12 10 10 10 10 10 10 9 8 7 9 10 10 11 9 10 10 9 8 7 7 4 4 3 3 2
3 4 2 3 3 4 4 2 4 7 7 4 2 3 2 3 2 3 1 2 2 3 1 1 5 1 4 1 1 12 5 6 10 11 13 14 13 12 12 12 12 11 12 12 12 12 12 14 15 15 14 12 11 12 13 12 11 11 10 12 13 12 11 11 11 11 10 8 9 9 9 9 9 10 10 9 9 8 8 7 6 6 5 5 5 4
5 2 4 1 3 3 1 4 3 1 5 3 2 1 1 3 1 4 1 2 3 2 2 4 0 0 1 1 0 2 7 5 8 7 10 13 13 13 12 11 11 12 13 13 13 13 14 14 15 14 13 14 13 14 13 12 12 11 10 11 12 13 11 10 10 10 9 9 9 9 9 8 8 8 8 8 8 8 7 7 8 7 6 6 6 6
6 4 5 5 3 1 2 1 1 2 2 1 1 0 2 1 1 4 2 3 4 2 2 2 4 4 4 1 3 6 6 6 6 9 9 11 10 11 11 11 11 12 12 11 12 14 15 15 16 15 15 14 13 15 13 12 11 11 11 11 13 12 11 11 11 9 10 8 8 8 7 8 8 9 7 7 6 8 8 6 7 6 5 6 5 6
1 4 7 1 2 1 3 0 1 1 2 1 1 0 0 0 1 2 2 5 4 4 4 2 2 1 1 1 5 4 3 2 4 8 11 11 10 9 11 12 12 12 12 12 12 12 13 13 14 13 13 14 13 14 13 13 12 12 12 12 13 13 13 12 11 10 10 8 7 7 9 9 9 7 6 6 5 6 7 8 7 7 6 5 5 4
3 3 1 4 3 2 2 2 0 1 1 1 0 2 2 1 1 1 2 2 4 3 2 0 1 1 3 2 4 9 3 6 7 10 12 13 13 12 12 12 12 12 13 13 13 13 14 12 13 13 14 12 13 13 14 14 12 12 12 12 13 12 11 12 11 11 9 8 8 9 10 9 8 9 9 8 8 8 6 6 6 7 5 5 6 6
0 9 5 1 3 1 2 0 1 2 1 0 0 1 1 2 2 1 4 1 1 3 1 2 2 3 2 5 5 7 4 9 9 10 12 12 14 14 12 12 13 13 14 14 13 13 14 15 15 14 13 14 15 16 15 11 11 10 10 12 13 12 13 12 11 10 10 10 10 10 9 9 10 9 8 8 8 7 7 6 5 6 5 6 6 6
0 3 3 1 2 4 1 0 2 1 2 1 1 1 1 0 0 2 1 4 3 1 1 0 1 1 2 2 6 6 4 9 11 10 11 12 13 13 12 12 12 10 9 11 12 11 12 13 13 14 16 15 12 13 13 11 9 9 8 9 11 13 12 12 9 9 8 9 8 7 9 10 8 8 7 7 7 8 8 8 7 8 6 5 5 6
1 1 5 1 0 1 2 4 4 8 4 1 1 1 0 0 1 2 0 0 3 3 2 2 2 1 1 2 4 7 6 6 9 10 12 12 13 12 11 11 12 11 11 12 12 13 14 14 15 17 16 15 16 16 14 13 11 12 11 10 9 7 7 9 10 10 11 10 9 8 7 6 7 8 8 8 9 8 9 8 8 8 6 7 6 6
2 0 2 5 3 1 2 3 1 2 5 7 6 5 4 1 1 0 1 1 0 4 1 4 1 3 2 3 5 7 7 8 4 8 8 9 9 9 9 10 10 11 11 12 12 12 13 13 13 13 12 12 11 9 9 11 12 11 10 10 10 12 11 11 11 10 10 10 10 11 11 10 9 9 7 8 8 8 8 7 8 7 6 5 6 6
1 1 2 4 5 3 2 0 0 0 1 0 0 3 3 4 3 1 1 1 2 3 3 3 2 4 4 2 5 7 5 5 1 1 4 5 7 7 6 7 9 10 9 9 10 9 10 11 11 10 9 8 10 11 12 10 9 9 10 11 11 10 10 11 11 12 10 9 10 11 10 10 8 9 8 9 8 8 8 8 8 7 6 7 6 6
0 1 0 4 1 0 2 0 1 0 1 1 0 3 1 1 1 1 4 1 2 2 1 1 5 2 2 2 4 5 5 5 2 2 3 3 5 5 4 4 3 4 5 7 7 7 8 8 9 10 11 11 13 12 12 10 11 11 12 11 10 11 12 12 11 9 9 9 10 11 9 9 8 8 10 10 8 8 8 7 7 7 8 7 7 5
1 1 3 4 5 2 1 0 2 3 1 1 2 1 2 4 2 1 1 2 3 4 2 3 4 3 3 1 3 5 4 4 0 3 4 3 3 4 5 5 6 5 4 3 2 3 5 5 6 7 8 9 8 7 9 9 9 9 10 10 10 12 12 10 8 8 8 8 9 10 10 9 9 9 10 9 8 9 8 8 8 7 7 6 6 7
2 1 0 3 3 5 3 2 0 1 2 2 3 4 1 2 1 1 1 0 4 4 0 1 4 2 2 4 2 3 2 2 3 1 1 3 2 3 4 4 4 4 3 4 4 5 4 5 7 9 9 10 9 8 9 10 10 10 11 11 12 12 10 9 8 9 9 10 10 10 11 10 10 10 10 10 8 10 9 9 8 7 8 7 7 6
1 1 3 3 3 4 4 6 6 7 6 5 2 4 1 3 4 1 1 2 4 2 2 2 0 2 2 3 3 2 1 2 1 1 1 1 1 3 2 2 2 2 3 4 4 4 6 7 6 6 7 7 8 9 9 8 9 9 10 11 11 10 8 8 8 9 10 10 11 11 12 11 10 11 11 10 9 9 9 9 9 9 7 8 8 6
1 1 2 1 1 1 2 3 1 2 3 4 9 5 7 2 1 2 1 4 3 2 4 2 3 1 1 2 1 0 1 1 1 1 2 2 1 0 0 1 1 2 3 4 5 4 4 4 7 7 6 7 7 7 8 9 8 8 8 8 7 7 8 8 9 10 10 10 11 11 11 12 12 10 10 10 9 8 8 8 8 9 9 8 8 8
2 1 1 3 5 4 2 3 2 1 2 3 5 9 9 7 8 3 3 6 3 6 5 2 3 2 2 0 1 1 2 3 3 3 2 2 2 2 2 1 1 1 1 1 3 5 6 6 5 6 7 7 7 7 7 7 8 9 9 9 7 7 8 7 9 10 10 10 10 11 12 11 10 9 9 8 8 9 9 9 8 8 7 7 8 8
1 0 3 4 7 5 5 4 1 1 1 2 6 7 6 9 9 6 1 1 2 1 6 4 3 4 3 2 2 3 3 3 4 4 4 2 0 1 1 1 3 4 3 3 4 4 4 5 5 5 6 7 6 8 8 7 6 5 5 6 8 8 10 9 10 10 10 10 11 11 10 8 7 7 8 8 8 9 9 9 9 9 8 8 7 6
2 1 1 2 6 4 3 0 1 1 2 4 4 5 5 4 3 1 1 0 2 3 3 5 2 2 1 1 3 3 2 3 2 2 1 2 3 3 3 4 4 5 5 5 4 3 2 2 3 4 5 5 7 7 7 7 7 8 8 7 7 8 7 9 10 11 10 11 12 9 8 8 7 8 8 9 10 9 9 8 7 7 8 8 7 7
1 3 3 0 3 5 1 1 3 3 1 6 4 5 2 3 1 1 0 0 1 4 3 3 4 2 1 2 3 3 3 0 0 0 1 1 1 4 4 4 5 5 5 4 4 4 3 3 4 4 5 5 6 7 8 8 7 6 7 8 9 10 9 9 9 10 11 12 10 8 8 8 8 8 10 10 8 8 10 10 9 8 8 7 7 8
4 2 2 2 1 2 1 2 1 3 2 1 6 9 8 6 4 3 2 0 1 3 1 3 4 1 1 3 3 3 2 1 2 0 1 1 1 3 4 5 6 6 6 6 6 4 5 6 5 5 6 7 7 7 7 7 7 7 9 8 9 8 7 9 9 11 11 11 8 8 9 9 9 9 10 9 10 10 10 8 9 9 9 8 8 7
0 0 1 2 1 1 1 2 2 4 2 3 8 6 3 2 2 3 2 1 3 4 5 4 4 3 1 2 0 1 2 1 0 1 2 2 2 4 4 5 5 5 6 6 6 6 7 7 8 9 8 6 7 8 7 7 7 9 8 9 8 7 8 9 10 11 11 9 8 9 9 9 10 10 10 10 10 8 8 9 9 9 10 11 8 6
1 0 0 1 1 4 4 5 1 4 7 2 4 1 2 1 0 2 2 2 1 3 0 1 1 1 2 2 0 1 0 0 0 1 2 3 1 2 3 5 5 4 4 5 6 7 8 6 6 7 8 9 8 8 6 8 9 9 7 7 6 9 9 10 9 10 9 8 9 9 9 10 10 11 11 9 9 9 10 10 12 11 8 7 7 9
2 1 0 1 0 2 5 2 4 4 1 3 1 2 0 1 2 2 4 4 3 2 3 3 3 3 4 3 3 3 3 4 3 3 2 2 4 2 1 1 2 3 3 3 3 6 7 8 7 5 5 6 7 5 6 6 5 4 5 6 7 7 8 8 8 7 7 8 8 8 9 10 10 10 10 10 10 9 10 11 9 9 9 9 10 11
2 1 1 0 1 0 3 4 3 2 3 4 1 1 2 1 0 0 2 2 1 4 5 3 4 3 2 3 3 4 3 3 4 3 4 2 4 2 2 1 1 2 1 2 2 2 4 5 8 8 10 6 4 6 7 8 6 7 7 6 8 7 7 7 8 8 7 7 8 9 10 11 11 10 9 10 10 10 11 11 11 12 9 8 7 6
1 1 1 2 1 1 1 0 1 4 3 2 1 0 3 0 1 1 3 3 3 1 6 2 1 2 1 2 3 2 2 1 3 1 2 4 4 5 4 3 3 3 3 3 4 3 3 4 5 7 4 3 6 6 8 6 6 7 6 7 7 7 7 8 9 10 9 9 9 10 10 11 11 11 11 11 11 11 12 12 12 10 7 9 9 9
3 1 1 1 2 3 1 2 2 2 1 4 4 1 1 1 1 3 2 2 2 2 4 2 0 0 1 1 0 1 1 1 5 1 1 2 4 4 4 5 4 4 4 5 3 4 4 4 4 3 5 5 6 7 6 5 7 7 7 8 7 8 8 8 11 10 10 10 11 11 10 10 11 11 11 11 13 14 12 10 7 8 9 11 11 11
4 5 3 2 0 2 3 2 1 2 1 5 3 2 0 2 3 3 3 3 3 2 5 4 1 2 2 2 1 2 2 2 1 4 4 3 2 2 3 4 3 4 4 4 4 3 3 2 1 1 3 3 5 5 5 6 7 7 8 7 8 8 9 12 12 11 12 12 10 9 9 9 10 10 11 12 13 11 11 11 12 8 7 8 8 10
4 4 2 3 1 0 2 1 1 4 1 0 4 1 1 2 2 2 1 2 2 3 4 5 4 3 3 2 2 3 2 1 2 1 2 3 3 3 2 3 4 4 4 3 3 4 4 1 0 0 1 3 5 3 6 6 7 8 8 8 7 9 12 14 14 11 8 7 8 8 8 8 10 11 11 12 11 9 10 7 6 8 10 9 8 8
1 1 4 2 1 1 1 2 2 3 5 4 2 2 1 2 2 2 2 4 3 3 4 5 3 3 5 4 3 1 4 4 1 2 3 3 3 3 2 3 4 4 5 5 4 2 1 2 3 4 5 4 1 2 4 5 7 8 8 8 9 12 15 11 6 7 7 6 6 7 9 8 10 12 11 10 9 8 6 6 9 8 8 9 8 7
1 1 0 2 1 1 2 0 2 4 6 2 2 3 1 1 1 2 2 2 4 4 3 5 2 3 5 4 5 3 1 2 4 4 4 4 3 5 6 6 6 5 3 4 5 3 3 3 3 4 4 4 3 3 4 5 6 7 6 7 12 16 10 5 7 6 6 8 9 8 9 9 9 9 9 7 7 8 9 8 7 8 8 7 7 9
4 3 2 1 2 2 2 1 1 2 0 5 6 3 1 1 3 3 2 1 2 2 5 4 4 3 4 3 5 5 6 6 4 5 5 5 4 5 5 5 5 5 5 5 3 2 2 3 4 5 6 3 2 3 5 6 7 6 7 9 16 10 5 6 6 7 8 8 9 10 10 10 11 10 8 8 9 9 9 7 7 7 8 8 8 9
3 0 1 3 6 2 1 1 0 3 1 5 5 1 4 6 1 5 5 3 1 2 4 3 4 5 5 4 3 4 5 5 7 4 4 5 4 4 4 4 4 5 5 4 5 5 1 4 4 5 5 4 2 3 4 7 7 6 7 15 9 2 4 4 5 6 7 8 10 10 10 10 11 10 9 10 9 9 10 9 9 8 8 8 9 8
6 2 4 1 2 3 2 3 2 3 3 5 5 3 2 3 1 4 2 3 3 3 3 2 4 4 6 6 5 4 4 4 6 3 2 5 6 5 5 6 5 5 5 5 5 2 2 5 5 5 5 5 4 4 5 5 7 6 10 10 2 5 5 6 6 7 7 8 8 9 8 7 8 9 9 9 10 10 10 9 9 9 8 8 9 9
1 1 3 2 5 5 7 10 2 3 4 5 5 6 3 1 0 2 2 0 4 4 7 5 4 4 4 5 4 4 6 5 4 5 6 7 6 6 4 6 6 5 5 4 5 4 4 4 4 4 6 6 4 4 5 6 7 9 13 2 2 4 5 5 7 8 10 9 8 9 7 8 8 8 9 10 9 11 10 11 11 11 9 9 10 10
2 2 2 2 2 3 3 2 2 5 3 3 6 4 4 5 6 5 3 4 4 4 5 6 5 5 5 5 7 7 7 5 6 7 5 5 6 7 6 5 6 5 4 4 5 1 1 2 4 5 5 6 4 4 5 6 8 11 7 5 4 4 5 6 7 8 8 9 8 7 7 10 9 8 8 9 9 9 9 9 9 10 10 10 11 10
1 3 1 3 0 2 6 3 6 5 6 5 5 4 5 7 8 8 9 6 4 3 5 6 4 5 3 5 9 8 9 5 5 8 6 6 6 5 5 5 6 5 5 6 4 3 2 3 5 6 5 7 7 4 5 6 9 9 8 6 4 4 5 6 7 9 9 9 8 7 8 9 10 10 8 9 9 10 9 9 9 11 13 13 13 12
1 2 3 3 3 7 7 10 11 6 7 7 6 9 9 6 3 3 3 5 5 6 7 5 4 5 5 8 3 5 6 7 6 6 6 5 5 5 7 7 6 6 5 4 5 4 7 5 6 7 6 9 5 4 5 6 7 7 8 7 5 6 6 8 7 8 8 7 6 8 7 7 7 8 8 8 8 10 10 11 11 12 11 9 8 11
3 4 2 1 2 4 5 1 1 2 2 6 4 2 7 7 5 5 1 3 5 6 7 6 6 4 5 5 3 4 6 8 5 4 6 6 6 6 5 6 5 5 6 6 4 4 5 5 6 6 7 9 5 4 6 6 6 6 6 5 5 7 9 9 7 7 8 7 7 7 6 7 7 7 7 8 8 8 8 9 11 10 11 10 11 15
7 8 7 5 6 5 7 9 4 3 3 7 5 2 3 3 5 5 6 6 6 7 5 4 5 6 5 7 5 6 7 8 9 3 5 6 9 7 6 5 6 6 6 4 3 5 5 6 5 5 7 9 5 5 6 6 6 6 6 5 6 7 8 7 7 7 8 7 8 8 7 6 7 7 7 7 7 7 8 8 8 11 14 12 9 12
Wind_Direction
124 184 213 216 226 219 221 205 221 231 240 135 118 182 229 235 260 273 263 234 196 201 210 208 206 193 185 184 174 173 156 159 159 169 168 159 156 155 155 152 145 142 146 140 143 148 152 152 150 153 155 155 153 156 162 160 170 187 166 163 174 160 158 149 148 151 147 139 122 111 135 135 140 128 117 103 101 95 98 96 89 78 71 66 69 64
122 211 242 230 230 218 217 210 220 246 253 241 243 244 251 226 248 227 240 226 192 204 217 205 185 192 186 181 177 161 158 179 185 175 168 164 165 172 156 148 142 136 121 130 138 149 149 152 154 155 159 162 162 171 169 171 182 178 176 171 177 166 164 162 161 158 157 160 161 152 160 143 143 137 133 125 115 111 98 95 93 85 76 71 70 73
188 218 243 236 233 233 222 205 208 211 233 229 227 235 250 248 251 284 248 225 197 199 232 193 186 189 201 187 172 173 183 190 183 184 181 169 167 170 167 151 141 139 147 150 150 155 155 158 157 157 163 171 170 163 173 175 173 183 183 182 179 172 168 167 161 158 159 147 128 136 144 143 123 68 101 113 117 109 101 92 92 89 84 86 75 74
269 246 241 254 194 191 218 201 200 225 231 229 222 223 231 227 168 263 254 198 196 187 219 187 190 178 188 193 205 192 187 169 171 180 167 197 168 170 173 169 161 156 152 160 162 164 164 164 162 159 164 176 176 171 177 179 184 182 189 191 179 175 171 168 169 157 128 111 93 81 109 94 94 135 112 89 97 98 94 90 89 76 90 86 87 82
241 242 157 139 196 209 236 202 181 203 233 222 222 221 230 220 220 215 250 195 182 210 247 166 141 165 169 187 238 186 126 123 134 147 177 182 165 109 109 128 132 148 156 153 152 159 163 169 174 171 169 173 182 176 183 180 185 185 194 192 183 178 177 173 161 142 127 113 98 99 83 87 84 71 86 108 105 126 123 112 95 111 95 87 85 79
264 266 119 191 231 230 233 236 214 192 235 236 223 218 220 214 215 219 38 179 182 201 216 176 139 198 174 188 204 185 141 145 149 160 173 172 147 135 144 136 149 156 157 156 160 162 160 162 160 167 177 186 180 190 182 178 181 191 198 193 183 182 178 172 159 147 143 146 144 141 135 133 123 139 158 178 177 173 163 160 145 109 100 95 85 86
265 70 71 266 263 240 222 229 225 182 219 229 234 202 222 219 216 194 169 212 185 206 196 199 179 159 147 196 195 200 160 158 158 171 166 168 158 162 168 156 161 162 158 157 153 157 164 172 173 178 185 190 185 191 184 177 180 194 203 194 184 184 176 170 159 156 147 148 164 165 160 157 165 167 200 162 144 149 144 133 137 124 89 98 102 90
254 219 223 220 265 248 219 223 194 176 206 230 225 194 207 206 212 206 172 217 261 56 88 238 161 143 164 201 191 192 176 167 176 179 168 172 165 169 170 168 169 170 167 165 172 174 172 172 179 181 187 191 193 187 188 183 182 190 205 190 183 179 176 173 162 165 164 163 167 156 149 158 164 178 177 164 149 130 138 140 137 118 109 109 114 108
188 298 300 323 311 284 240 227 298 176 190 209 177 154 184 196 210 175 177 211 224 155 181 166 128 125 193 160 165 179 193 190 192 181 180 174 173 173 170 172 174 177 173 167 170 176 177 177 184 182 184 186 193 204 202 191 182 190 204 189 174 183 176 173 170 168 175 172 169 161 154 161 172 146 136 129 130 142 151 135 128 126 151 126 110 113
345 271 305 40 257 282 230 222 227 189 210 262 235 187 177 168 146 163 205 178 169 157 171 178 171 123 117 219 173 186 202 201 194 190 186 179 177 174 175 168 174 174 175 174 174 175 178 182 183 183 181 189 194 193 202 207 187 197 203 187 187 181 177 173 175 174 179 176 160 155 162 160 153 132 120 133 149 155 158 146 156 161 156 144 115 104
260 105 111 83 248 247 272 259 199 212 228 289 244 139 136 134 139 185 231 147 84 156 203 169 87 128 155 209 187 177 205 196 188 189 184 175 174 175 178 167 169 176 177 178 176 177 174 168 172 170 187 190 191 192 192 199 201 203 201 190 187 182 176 175 177 177 179 174 172 165 165 162 154 150 148 149 159 160 158 162 174 175 171 152 138 117
296 308 355 223 237 265 246 316 153 202 226 247 197 133 117 112 128 33 13 59 146 222 256 177 122 65 131 223 213 215 37 193 187 187 176 176 179 178 181 176 172 177 178 174 171 164 158 157 170 173 192 192 194 192 199 207 202 205 200 188 183 179 180 180 181 181 181 173 177 169 165 163 162 158 165 171 173 178 172 172 174 179 158 148 127 120
300 264 206 253 201 209 312 330 55 25 358 4 106 153 175 107 137 100 59 56 115 158 303 124 112 50 265 211 262 215 232 191 194 190 180 174 175 176 179 176 173 175 173 172 171 165 167 172 175 185 192 191 195 199 199 203 199 202 194 184 182 186 183 183 182 185 181 176 176 171 170 165 161 166 171 173 174 175 172 170 163 169 173 155 141 179
279 271 316 293 87 230 112 0 344 357 2 2 53 164 256 148 191 131 115 32 45 68 11 142 16 231 304 230 147 257 227 217 187 176 165 172 176 177 176 173 172 175 176 176 174 174 177 177 183 185 185 192 195 200 204 206 198 199 194 186 186 188 185 183 182 183 179 185 178 173 169 161 160 171 174 175 175 176 173 170 168 175 174 173 180 172
346 351 349 12 358 102 62 68 100 338 313 10 280 34 337 312 178 140 173 162 153 130 82 340 160 218 168 239 310 270 257 259 185 158 158 163 168 169 170 168 169 177 177 174 177 181 182 183 182 179 186 192 194 196 197 206 199 195 193 187 189 184 185 182 183 180 183 183 180 172 164 160 170 169 171 177 178 171 165 171 167 169 171 177 179 174
313 235 258 165 242 78 350 253 92 119 318 308 18 32 9 265 227 129 164 123 139 127 104 167 188 126 198 300 277 294 277 152 150 135 138 154 158 161 169 175 177 176 176 177 182 186 189 184 178 179 186 191 194 197 198 200 193 191 190 186 189 185 182 184 181 183 181 180 175 167 165 173 171 168 164 159 168 173 164 167 170 166 176 177 159 169
329 326 270 336 47 298 250 150 257 180 83 140 175 346 251 156 135 174 40 15 106 74 64 352 343 233 300 330 339 347 100 142 145 154 161 163 163 166 179 181 181 177 177 180 183 187 187 183 181 184 189 191 191 196 204 202 192 192 180 179 185 186 183 183 184 180 177 167 164 179 178 168 167 169 171 173 172 166 160 164 163 156 172 158 156 158
258 277 306 29 359 32 297 166 178 195 202 122 93 282 190 195 152 225 131 178 64 134 137 76 355 314 355 154 337 2 137 146 163 172 172 167 165 174 180 182 184 184 183 183 185 184 184 187 186 184 189 193 196 198 204 199 189 197 183 180 184 182 183 186 180 177 171 167 175 180 176 175 175 170 170 167 163 156 149 155 144 129 153 175 164 153
175 338 303 265 233 280 330 262 316 229 176 247 274 322 15 302 295 311 94 140 138 108 187 33 242 217 165 271 356 335 352 153 170 176 170 167 172 178 181 187 189 181 171 178 183 181 185 190 192 190 194 198 195 198 196 201 189 196 193 189 189 190 188 180 176 172 171 171 173 175 178 176 167 166 165 161 153 150 154 158 159 155 167 156 151 146
324 218 296 297 247 330 13 45 15 323 337 291 327 2 41 130 201 32 4 132 92 154 101 338 20 291 182 242 295 284 285 288 171 174 183 179 179 179 182 183 181 179 183 184 185 186 187 190 193 193 193 189 191 195 198 197 191 192 192 187 190 182 175 174 178 177 176 175 163 165 161 167 165 165 165 162 157 160 161 159 157 149 162 174 153 153
290 219 269 287 307 25 357 20 2 326 339 338 20 10 359 340 238 132 25 56 113 156 129 136 28 294 301 224 275 280 285 278 214 183 183 184 186 185 181 178 181 185 187 189 188 186 187 192 194 196 195 194 193 195 191 193 196 191 180 186 183 182 182 182 181 178 181 168 167 161 168 171 170 166 160 156 160 157 156 153 152 160 164 152 157 158
355 8 250 309 357 9 240 23 120 176 229 314 324 27 257 318 21 42 6 60 26 86 174 113 189 288 284 243 256 276 282 280 218 180 165 178 181 183 179 185 183 186 193 191 192 188 187 188 191 192 188 188 186 189 191 188 182 183 183 186 189 186 186 182 183 185 177 173 165 167 165 171 170 162 156 159 161 159 157 158 158 156 156 169 161 167
176 249 77 294 221 182 276 170 90 187 225 211 163 359 254 231 224 85 102 324 37 24 54 144 116 312 239 212 242 259 277 278 226 147 182 172 168 172 168 165 178 189 184 189 186 184 186 186 185 185 185 185 188 189 185 178 181 184 188 190 192 189 194 189 187 181 171 167 167 167 161 162 170 166 161 161 164 162 159 154 151 159 166 169 160 178
292 46 350 287 307 302 330 124 167 64 148 299 289 245 18 7 340 335 38 65 96 341 31 345 56 267 301 350 298 285 303 294 297 152 161 160 162 157 168 174 176 178 181 179 175 163 164 167 165 167 181 185 184 177 178 180 180 183 186 190 189 196 193 188 178 170 166 167 167 160 157 170 171 169 165 166 167 164 164 160 161 167 168 168 156 173
5 318 102 316 359 332 340 354 359 308 70 72 289 310 325 299 26 182 100 14 67 347 227 107 118 285 294 350 12 23 347 104 121 98 129 166 177 169 178 181 172 166 157 160 170 170 157 159 173 184 183 185 185 179 178 180 183 182 187 186 191 196 189 180 167 165 168 167 164 166 169 175 176 177 172 171 170 172 167 161 161 170 170 162 167 175
72 286 54 73 62 40 348 340 328 328 335 295 235 305 336 6 14 60 52 358 68 334 47 76 101 274 299 17 45 357 357 50 7 346 326 340 206 186 181 185 157 159 183 176 163 149 171 178 179 178 181 182 183 180 179 181 183 186 188 193 191 185 174 172 164 168 166 169 167 172 176 177 180 184 177 172 171 168 166 164 169 171 172 171 167 171
141 63 81 149 149 180 211 223 274 9 335 1 311 324 330 344 315 204 101 70 92 202 55 329 187 278 35 45 7 320 296 204 265 290 275 276 277 32 56 81 113 162 170 182 182 173 146 157 180 185 181 182 179 179 181 180 183 186 187 188 185 177 168 166 167 170 171 172 174 174 182 183 187 180 176 173 171 167 170 173 173 172 173 175 168 171
79 360 322 158 212 218 214 237 278 350 291 268 325 317 331 344 338 91 90 130 157 94 63 254 210 132 206 132 228 246 266 292 292 286 293 291 267 187 179 163 155 216 216 170 162 169 183 186 180 181 184 180 186 183 183 186 184 182 182 182 178 168 165 168 169 171 173 173 178 184 188 190 181 176 175 168 165 170 171 169 173 179 174 167 170 177
124 347 306 56 278 254 267 258 295 352 205 260 278 289 309 330 2 59 74 110 132 152 169 189 144 142 210 231 232 244 226 221 230 231 231 246 89 73 100 174 210 226 239 226 216 204 186 186 188 185 185 189 178 185 186 183 185 182 183 181 176 169 175 169 169 174 176 178 185 193 191 178 173 169 167 167 168 174 179 177 173 173 174 177 177 181
98 311 273 73 291 316 333 314 305 330 319 327 274 299 279 301 306 23 122 196 139 110 91 134 140 122 234 244 236 248 262 242 277 310 32 119 176 176 175 200 216 226 227 232 235 232 229 219 193 195 188 188 189 186 184 184 185 184 179 179 175 176 176 165 177 175 179 186 194 189 179 174 169 171 168 171 178 178 172 171 176 178 177 181 181 180
59 293 83 341 17 303 360 74 40 60 46 318 307 318 304 270 281 74 70 327 101 62 27 66 86 51 270 225 253 291 309 245 9 98 268 261 166 173 183 209 228 235 239 237 240 238 229 228 220 210 202 201 196 194 189 190 185 181 181 177 177 182 177 172 175 181 184 195 193 180 169 169 175 170 179 182 176 176 177 176 174 180 183 182 181 183
42 300 66 58 26 312 4 32 5 39 35 345 315 359 2 8 33 349 25 302 93 150 103 82 82 133 303 340 279 305 11 63 187 262 279 269 228 191 197 219 223 232 236 235 231 220 218 220 218 215 213 209 205 200 193 188 184 179 190 182 184 180 166 175 179 184 192 196 180 175 175 176 172 179 184 179 186 184 182 173 174 181 185 183 187 189
89 126 358 18 57 272 270 67 344 10 35 5 355 326 285 283 230 277 259 218 237 139 101 131 194 223 197 339 61 322 356 332 326 255 255 284 264 199 211 219 227 235 233 232 233 230 222 212 212 212 215 211 209 205 205 184 176 193 190 185 184 157 171 182 185 191 195 189 179 180 176 173 181 186 186 191 187 179 171 177 183 186 187 194 186 167
42 108 129 178 98 258 293 332 348 51 50 294 245 212 167 286 349 24 347 292 266 185 274 189 211 312 307 299 154 246 286 227 188 261 216 216 203 231 246 242 234 230 237 237 225 220 225 228 225 219 213 211 210 207 194 185 191 196 189 177 159 171 182 184 193 193 194 185 185 180 179 181 185 191 193 186 182 178 181 184 194 195 189 174 173 189
5 40 176 143 110 278 321 11 39 37 247 236 189 235 208 162 184 233 278 276 254 259 293 310 291 265 236 228 243 240 248 274 272 256 301 220 196 209 228 250 242 224 228 230 232 219 215 216 224 232 236 227 214 198 176 198 199 174 161 163 173 184 182 193 191 197 192 188 185 179 183 186 190 193 190 187 185 184 190 195 196 190 190 186 189 191
304 352 216 43 140 297 31 26 89 224 242 300 286 193 216 132 194 196 332 304 240 206 193 211 249 255 255 269 265 242 245 277 310 259 235 257 197 184 189 241 253 223 235 226 210 231 211 208 210 210 223 222 192 192 189 195 182 170 183 168 178 180 186 186 193 202 194 194 188 188 190 190 193 193 190 189 188 191 196 197 197 196 189 186 195 202
153 115 75 304 72 122 178 127 241 318 348 337 28 193 191 205 176 150 116 333 314 191 166 189 267 269 252 240 252 291 296 21 43 338 255 228 230 221 199 222 213 221 216 245 208 226 213 216 209 222 207 191 193 191 201 191 173 174 163 172 182 178 186 187 201 205 199 199 194 196 194 193 193 194 193 191 191 198 201 198 200 200 179 188 196 194
134 21 249 66 304 116 112 29 359 22 258 276 240 280 253 207 146 144 104 349 300 250 192 150 187 242 237 298 325 332 36 55 26 348 287 280 237 233 254 253 263 252 242 251 260 252 249 237 233 230 193 197 196 204 194 177 172 171 177 184 181 181 193 197 211 205 199 203 200 198 195 194 193 196 195 192 200 203 205 203 201 197 183 192 192 200
36 68 105 111 215 26 29 112 199 121 249 205 246 242 197 207 151 123 66 19 271 185 191 185 213 240 210 170 234 55 60 66 259 254 270 265 288 230 248 276 257 251 253 243 249 277 278 268 224 194 175 174 198 211 177 168 168 173 191 188 186 190 196 210 213 203 203 207 200 196 194 192 195 199 198 201 208 203 200 200 201 192 177 200 199 209
45 345 13 9 28 126 129 89 270 198 162 89 228 269 223 179 132 62 51 279 251 220 195 176 212 202 220 225 124 105 118 148 244 257 245 256 255 262 203 265 306 317 313 299 279 237 251 305 43 185 210 201 230 190 171 165 169 183 190 195 184 198 214 216 213 207 208 202 196 195 191 194 198 203 202 208 209 203 207 197 178 182 190 200 200 202
344 331 39 215 174 232 111 279 310 304 269 269 251 225 160 210 70 79 182 230 236 221 193 172 205 206 165 163 175 95 235 184 198 235 282 299 342 315 285 238 238 239 262 278 271 317 267 242 212 225 227 238 243 175 174 164 172 192 198 188 191 214 221 217 198 198 201 188 187 193 199 198 201 205 210 209 207 200 195 186 196 191 190 197 197 198
336 103 309 75 91 193 189 173 227 246 249 164 8 131 251 59 69 192 234 208 147 197 222 184 211 222 173 179 186 204 252 264 260 283 299 306 270 265 279 291 312 303 259 241 248 254 261 266 260 270 276 242 198 176 168 171 188 203 196 196 215 223 216 187 192 183 180 188 196 199 199 202 207 207 208 202 185 187 202 203 195 195 195 191 189 200
199 133 213 183 194 74 44 64 9 91 253 126 141 54 2 114 227 202 196 261 192 193 166 227 203 243 167 245 230 232 280 303 299 296 294 293 292 287 297 315 312 299 305 325 322 283 195 259 263 257 252 262 183 177 177 171 198 208 207 215 229 221 192 194 182 184 188 192 198 201 202 204 201 202 199 197 195 196 206 194 192 197 190 191 195 202
206 196 276 269 187 142 113 135 173 213 201 182 153 255 214 221 213 181 125 143 239 159 185 201 253 219 200 204 247 266 257 276 311 294 313 291 272 279 284 276 272 280 283 260 238 264 203 238 259 266 267 262 220 188 187 180 205 213 214 235 237 178 189 188 194 186 194 202 206 205 207 205 204 203 198 197 192 198 202 196 196 197 197 193 195 201
219 161 177 40 234 140 196 214 247 236 199 221 195 217 214 258 267 191 128 156 162 252 185 155 233 237 203 205 232 237 286 253 238 247 253 269 290 290 289 285 284 285 280 281 279 259 201 217 236 249 273 265 230 202 195 197 203 218 228 245 175 197 193 198 190 198 209 214 213 212 213 207 207 204 202 200 190 197 203 202 190 199 200 192 201 204
299 179 155 108 254 257 249 227 238 298 267 267 253 222 225 277 238 161 173 209 245 211 177 188 214 210 210 202 198 256 220 233 233 266 252 264 273 277 267 284 286 272 268 281 287 262 223 227 242 252 262 278 241 214 200 203 197 215 234 225 187 201 196 192 197 209 216 214 213 214 203 208 214 210 207 203 201 205 203 201 195 202 195 197 206 206
254 162 167 212 274 31 293 338 182 240 274 261 242 269 245 232 230 188 211 217 233 198 218 243 210 210 198 170 200 227 245 233 238 255 253 264 261 262 261 257 268 258 257 262 250 238 232 199 239 250 246 262 260 215 217 208 215 226 238 225 194 185 187 194 206 218 222 221 220 213 202 208 210 209 209 208 209 210 209 204 200 202 202 201 205 206
337 179 156 227 135 186 235 259 255 238 244 250 226 258 254 239 231 216 215 218 210 213 209 226 198 236 171 202 217 215 243 228 215 247 253 241 244 250 255 251 256 275 251 229 256 226 242 213 227 244 245 251 250 215 216 216 225 228 231 231 201 182 180 202 209 219 224 223 216 214 208 215 214 208 209 210 205 208 212 211 203 204 209 204 203 200
182 115 228 173 193 273 305 284 278 280 288 274 233 234 241 242 262 294 276 272 283 279 272 277 216 233 185 228 204 212 254 259 220 237 251 268 263 258 247 243 240 239 258 262 249 204 212 215 227 237 241 255 246 213 217 227 234 233 228 224 203 183 191 213 218 222 232 228 217 224 213 216 214 214 215 214 213 220 212 205 205 215 226 224 207 205
109 219 208 104 317 299 210 243 148 73 290 308 323 264 230 230 214 231 239 236 233 239 251 259 274 235 224 249 226 198 228 269 258 209 244 251 258 258 260 253 248 249 259 246 239 223 237 238 231 243 245 255 241 220 227 235 236 234 227 219 203 189 204 216 215 221 231 223 221 226 214 220 220 217 218 215 217 220 237 236 224 218 219 226 212 218
186 205 145 184 166 234 245 234 195 141 186 232 221 268 236 206 171 178 217 224 234 224 211 196 252 292 264 244 199 202 236 246 265 201 239 262 258 251 251 260 268 271 266 254 245 259 233 242 236 243 255 257 248 235 236 242 240 234 227 211 201 194 210 206 215 223 229 214 221 214 212 214 220 217 217 218 216 213 223 235 243 237 233 234 218 214